Theta_e
299 299 299 300 300 300 301 301 301 302 302 302 303 303 303 304 304 304 304 304 307 306 311 313 313 314 314 317 321 320 323 326 326 326 324 325 324 325 327 327 326 325 325 328 338
299 298 299 299 299 300 300 301 301 302 302 302 302 302 303 304 305 309 306 304 309 313 313 313 313 312 312 316 319 318 317 324 324 324 325 325 325 326 326 326 326 327 327 327 327
305 303 300 299 299 299 300 301 301 301 302 303 303 303 303 305 314 314 313 313 312 309 306 308 310 313 312 313 316 318 318 321 323 324 324 324 324 324 324 325 326 326 327 327 327
306 307 307 304 299 299 300 300 301 301 303 305 305 303 304 310 317 309 311 307 306 309 312 309 309 311 310 311 314 314 316 319 321 321 322 322 323 324 324 324 325 326 325 326 326
304 305 307 307 300 299 300 300 301 301 303 305 304 304 305 316 316 311 312 313 313 313 312 313 313 311 309 310 311 312 312 314 314 314 316 318 320 322 321 320 321 323 325 326 325
299 302 306 306 302 302 302 301 301 301 302 307 304 305 307 316 312 312 312 312 312 312 312 312 312 312 310 310 310 310 310 311 312 312 313 314 315 317 318 318 318 319 321 323 325
298 301 306 304 304 304 303 303 302 301 304 307 305 305 306 310 311 311 311 311 310 312 311 311 311 311 311 310 311 311 309 309 311 313 313 315 313 315 317 318 318 318 319 319 321
302 301 306 304 304 304 303 301 301 301 308 305 304 311 311 312 312 311 310 310 310 310 312 311 311 312 311 310 309 309 306 307 309 310 312 313 315 315 315 314 315 315 316 315 316
306 302 306 306 304 307 312 312 306 306 309 314 308 316 316 312 311 310 309 310 310 310 310 310 311 311 310 307 306 305 307 309 309 309 309 311 310 310 313 313 313 314 314 314 314
308 302 306 307 307 312 313 311 315 313 311 315 312 315 315 314 310 310 310 310 310 311 311 312 310 307 305 306 308 309 308 309 310 311 310 309 310 311 312 312 313 313 313 313 314
307 302 306 309 309 312 312 312 311 312 311 312 313 315 315 311 310 309 310 310 310 310 308 309 307 307 307 307 309 310 310 309 310 310 310 309 310 310 311 311 311 312 313 313 312
303 303 306 309 311 313 313 312 312 311 311 310 311 311 314 312 312 310 311 310 309 308 308 306 308 309 309 309 309 309 310 310 310 312 312 310 311 310 309 310 311 312 312 312 311
300 305 305 308 312 312 311 311 312 313 310 311 313 311 312 312 310 310 310 310 310 309 308 307 308 309 310 310 310 310 313 313 313 312 312 310 312 311 310 310 311 311 311 311 311
301 308 304 307 313 312 311 311 310 313 311 315 311 311 311 310 309 310 310 310 309 309 308 307 308 309 308 310 312 312 312 312 312 311 311 311 311 311 310 309 309 311 311 310 312
306 307 310 312 312 312 311 310 310 313 311 314 310 310 310 309 310 311 311 310 308 308 308 307 308 307 308 311 312 310 312 311 312 311 310 310 308 309 309 310 308 307 313 314 315
309 304 307 311 312 310 308 313 314 312 312 312 311 310 310 310 310 310 310 310 309 308 307 306 308 309 310 312 311 311 311 308 308 307 309 309 308 308 308 308 309 313 314 314 314
306 306 308 309 310 309 310 314 312 313 312 312 311 310 310 310 311 310 309 308 307 308 308 308 308 312 312 311 308 307 306 307 308 310 311 309 310 308 309 311 313 314 314 314 313
312 314 314 314 311 312 312 309 313 312 311 311 311 310 311 310 310 310 310 308 309 307 306 306 307 309 310 310 308 308 307 306 310 311 308 309 310 308 309 314 314 314 313 312 312
313 315 314 311 311 313 313 308 308 310 310 311 311 311 310 311 310 309 309 310 310 308 309 309 310 309 309 309 308 308 308 306 309 308 309 308 308 308 309 313 313 312 312 312 313
314 314 313 311 311 313 308 312 309 309 310 311 311 311 311 310 309 309 309 312 311 310 307 308 310 308 309 309 308 309 309 309 305 311 312 310 309 310 310 311 313 311 311 313 313
313 313 312 312 312 314 308 310 311 312 311 311 311 311 310 310 310 310 310 310 312 311 309 309 307 309 308 308 307 307 309 309 306 306 307 311 310 308 311 311 311 310 312 313 313
312 309 313 312 310 306 308 310 311 312 311 311 310 310 310 310 309 309 310 311 312 311 311 310 308 310 309 308 309 307 309 309 306 308 310 310 311 309 311 311 310 311 313 313 313
310 313 313 313 306 305 306 309 310 311 311 310 310 309 309 309 310 310 311 311 312 311 310 309 308 310 308 307 307 310 310 310 308 308 313 312 311 311 311 311 312 312 312 313 314
307 305 309 309 308 306 307 309 311 311 311 309 309 309 308 309 307 309 310 311 310 310 311 311 307 310 310 308 306 310 310 310 312 313 311 311 311 310 310 311 312 313 313 313 315
304 304 305 303 302 304 306 309 310 309 308 308 308 308 308 308 308 308 308 308 309 310 310 308 309 309 310 310 311 312 312 312 312 312 313 312 311 310 311 311 311 311 312 314 316
302 304 304 304 305 305 305 307 308 308 306 307 307 306 306 306 306 306 306 307 308 308 309 306 309 310 312 312 312 312 312 312 311 311 312 312 312 310 310 310 310 311 311 312 313
301 304 305 303 303 302 302 304 306 306 307 307 306 305 305 305 307 307 307 307 307 307 307 307 308 310 311 310 311 313 312 312 313 312 311 312 312 310 310 310 311 311 311 312 313
Wind_Speed
16 15 15 15 15 14 14 13 12 12 12 13 14 14 15 16 16 17 18 11 6 13 9 8 8 8 9 7 9 5 2 4 4 3 3 13 3 2 17 12 23 13 19 24 3
18 18 17 17 16 15 14 13 12 12 12 13 14 14 16 18 17 8 4 6 9 7 7 7 8 6 5 7 5 5 4 7 3 2 4 12 9 18 13 25 21 28 27 24 17
21 20 19 19 18 17 15 14 13 12 12 13 14 13 14 15 6 6 3 4 7 6 4 10 10 5 4 7 7 6 6 4 3 5 10 14 20 17 15 17 9 22 26 28 20
20 20 20 20 19 18 17 15 13 12 11 13 13 11 10 5 1 5 7 7 7 5 3 2 7 4 4 5 6 4 5 5 2 14 14 8 19 20 24 30 23 24 31 28 24
22 20 20 21 19 18 16 15 13 11 11 12 11 7 5 3 2 2 6 6 4 2 4 1 2 2 3 2 3 4 3 7 8 10 15 23 19 16 38 33 21 25 28 26 25
23 20 20 21 20 18 15 13 13 10 10 10 8 4 2 2 5 7 3 2 1 1 2 3 3 4 0 1 1 5 4 9 4 7 9 9 15 15 34 24 26 20 21 21 20
24 19 20 21 20 17 13 11 10 7 7 8 4 4 5 5 5 2 2 4 5 6 3 1 2 3 1 5 5 5 6 5 4 6 7 12 11 17 31 27 28 28 30 31 23
26 20 20 20 18 13 10 8 6 4 5 3 4 4 5 8 5 3 3 3 3 4 8 5 6 5 1 4 7 4 4 3 4 4 7 7 19 8 9 16 16 15 18 22 19
25 20 20 18 14 11 10 7 3 2 2 4 2 3 3 5 4 4 4 3 4 2 4 7 5 2 3 3 5 6 1 2 7 5 4 4 6 7 19 12 18 17 21 27 31
25 18 16 14 11 13 9 13 7 6 5 3 3 4 3 4 7 5 6 3 4 5 5 1 3 3 3 4 2 3 1 3 4 6 5 10 11 6 12 9 11 15 22 26 27
24 17 12 9 9 11 18 6 7 2 16 8 10 6 4 4 5 2 5 2 2 2 2 1 4 4 9 9 6 2 3 6 5 6 5 9 18 10 8 7 9 13 20 22 27
24 14 9 4 6 7 10 14 8 7 7 15 14 15 13 8 8 8 9 4 2 2 2 5 2 5 5 4 5 4 3 2 3 4 7 8 22 13 5 7 8 13 13 19 32
21 12 6 1 3 11 11 12 7 11 2 8 2 6 7 8 5 6 8 3 2 1 2 3 6 4 3 4 3 2 2 3 4 5 5 7 19 6 3 6 12 8 17 27 27
18 10 4 2 4 4 6 7 9 8 3 3 2 2 4 6 3 9 9 4 0 2 3 4 3 2 4 1 2 3 1 2 5 7 3 4 11 17 5 6 3 19 25 20 18
13 7 3 4 1 5 10 10 3 3 4 2 0 0 2 5 4 4 12 9 5 5 4 6 4 5 3 2 1 5 2 3 3 5 3 4 4 3 12 13 8 7 11 18 23
9 6 2 1 3 10 9 4 1 4 3 3 3 4 5 5 8 3 9 7 1 3 2 8 2 3 2 1 0 2 2 4 3 1 2 9 7 6 2 1 3 4 16 22 23
6 5 4 4 7 10 8 1 4 5 4 5 3 5 2 4 4 5 5 3 1 1 3 3 2 2 3 2 5 6 6 4 4 3 4 3 4 9 12 6 6 6 16 23 27
4 5 8 6 10 12 8 4 7 3 3 2 4 6 4 7 5 6 2 1 6 4 2 2 5 4 2 3 4 4 7 4 5 3 9 6 6 6 5 7 6 7 14 20 31
4 9 8 13 11 13 4 5 3 2 2 4 5 4 5 5 3 6 5 2 2 4 3 1 4 3 2 2 4 3 3 5 3 2 2 5 10 8 9 5 4 13 19 23 31
6 5 12 12 12 10 5 1 3 2 2 2 1 1 2 4 4 6 1 1 4 1 2 3 5 4 1 3 4 2 2 1 2 3 5 5 6 9 12 9 6 8 15 27 29
7 2 10 12 11 5 3 3 3 9 5 3 3 4 4 2 2 2 4 2 3 2 4 2 4 4 2 4 5 2 1 3 2 3 4 4 7 6 6 8 7 10 21 22 30
5 2 5 10 5 2 0 2 7 4 3 4 3 4 4 3 3 3 6 5 6 5 4 4 3 3 8 7 6 6 6 5 4 5 4 3 15 7 5 8 8 16 24 21 26
9 4 3 5 2 3 6 5 3 2 4 2 3 4 2 3 3 5 4 2 6 6 6 5 1 4 7 3 5 1 4 4 2 1 12 6 10 4 5 8 18 19 25 24 25
7 3 3 4 3 3 4 5 5 9 2 3 3 2 4 2 4 5 3 4 4 4 7 8 4 7 6 7 2 9 11 11 11 5 8 16 27 20 18 16 14 16 21 26 21
7 1 2 4 2 2 3 3 3 5 6 8 2 5 1 4 3 6 3 4 5 11 4 7 7 6 10 14 12 16 21 20 16 18 12 20 20 23 15 10 8 20 21 20 20
6 6 4 5 7 4 2 2 2 3 4 3 1 6 4 6 6 7 6 4 7 5 4 2 4 5 7 10 14 19 19 19 20 19 18 21 24 10 8 16 11 18 21 22 24
6 6 5 3 3 1 2 2 4 8 7 3 4 3 4 7 11 21 23 21 14 7 6 6 5 2 15 9 10 12 18 9 4 6 5 8 18 4 12 10 10 17 22 27 19
Wind_Direction
344 340 337 336 335 334 333 331 328 323 318 313 314 318 320 313 306 291 276 263 227 220 211 206 223 217 223 222 192 162 169 228 230 140 230 312 356 186 325 313 334 334 347 17 81
344 339 334 329 327 326 326 326 324 321 316 314 314 319 320 317 318 312 281 217 193 179 205 218 216 209 198 217 207 168 179 220 225 101 322 296 305 322 333 316 316 315 329 353 12
345 341 335 329 322 319 319 319 321 321 320 320 322 322 320 324 334 29 65 139 160 173 215 225 208 204 202 228 204 196 203 208 285 313 305 302 301 314 296 284 297 301 318 330 335
341 339 336 332 323 314 311 310 312 316 318 322 323 320 316 329 157 54 71 106 153 137 83 155 190 181 181 212 219 251 248 238 256 284 290 273 297 300 279 269 288 293 302 306 311
335 334 332 332 326 317 308 303 301 307 314 326 332 322 324 298 304 73 126 92 89 65 41 30 180 207 199 229 295 201 273 296 320 301 284 284 279 267 279 285 295 298 298 294 299
339 334 333 333 328 321 313 305 298 298 311 329 332 327 317 308 108 89 106 69 47 9 20 56 40 329 297 305 168 331 300 298 295 276 248 248 270 270 268 292 302 302 305 298 286
344 335 334 336 333 325 323 319 302 291 310 325 321 318 258 197 167 180 285 314 317 269 54 65 5 344 20 323 323 318 337 341 217 247 233 239 259 247 273 295 295 302 296 302 300
348 339 337 339 341 346 348 341 316 292 314 314 312 317 254 159 208 220 215 282 8 222 243 287 307 305 293 320 358 14 43 16 278 262 259 192 253 284 334 342 336 353 326 337 333
346 340 339 347 356 18 8 350 335 310 327 351 276 312 266 184 167 175 271 217 312 264 264 284 290 197 15 66 9 14 193 258 309 320 281 194 311 328 327 328 320 333 331 331 325
345 341 342 355 17 32 31 36 63 90 44 339 255 326 58 330 192 241 181 245 303 322 310 184 140 101 46 76 236 248 251 249 261 299 317 296 274 269 299 306 305 319 328 330 329
345 342 344 3 19 41 49 31 23 33 322 263 284 280 311 12 271 208 187 217 32 65 60 39 92 207 239 207 224 237 239 247 269 285 312 289 294 300 284 276 287 309 320 323 326
344 343 343 345 16 41 51 35 35 341 310 306 269 263 268 279 295 268 211 232 69 306 10 24 208 212 255 208 196 185 208 252 272 320 327 305 292 293 270 258 269 301 314 322 319
345 346 348 277 47 74 61 38 13 348 343 303 241 240 237 221 238 244 202 193 135 284 111 157 246 303 11 338 29 341 111 334 271 302 266 307 290 258 264 285 305 303 311 310 311
347 350 21 175 117 23 38 358 347 356 68 295 237 256 206 216 276 238 231 202 76 227 290 256 266 70 356 303 93 338 77 324 330 350 305 53 290 290 267 271 297 299 308 331 331
354 1 74 123 120 354 329 319 313 311 66 176 301 184 246 206 300 241 232 200 195 199 103 257 291 328 328 255 93 241 312 289 276 263 278 206 257 283 332 304 284 335 336 324 320
13 47 96 331 301 317 320 326 340 46 63 6 47 0 351 267 250 267 194 226 310 156 221 245 230 189 200 281 265 346 337 353 358 44 281 211 200 314 208 305 269 284 318 313 313
69 69 60 7 347 337 331 10 38 79 324 1 315 325 301 285 323 186 190 64 260 317 289 331 355 11 90 353 356 62 50 339 338 357 242 303 313 266 288 249 196 253 305 316 317
79 34 21 353 360 357 353 57 66 92 338 357 315 326 44 6 5 1 56 87 32 90 76 124 317 175 163 173 216 252 161 162 259 223 280 307 249 250 252 246 279 312 309 318 322
71 17 11 20 8 354 354 53 196 285 288 313 321 38 342 340 46 30 19 105 70 47 119 30 260 274 320 128 132 264 200 213 219 312 278 227 270 289 258 242 294 325 327 322 320
358 0 19 10 354 350 69 232 209 264 177 24 24 25 323 312 24 24 320 349 129 81 135 199 289 248 295 27 357 163 211 312 14 266 248 257 259 250 273 288 298 302 306 313 328
348 31 3 0 351 17 108 245 290 311 202 176 236 265 251 288 275 243 251 334 134 141 104 155 175 277 29 193 212 353 276 82 131 172 216 291 257 217 249 269 267 278 297 308 324
350 34 339 356 41 27 292 267 308 308 307 229 186 212 226 242 269 253 232 192 161 167 168 203 170 266 240 278 251 172 206 151 133 266 235 238 270 271 269 255 264 268 286 301 322
341 303 354 342 91 320 308 293 262 302 305 272 255 213 204 233 278 219 239 219 195 171 175 185 248 309 329 16 356 115 206 201 205 265 250 260 263 214 259 276 273 264 280 290 318
351 360 337 58 86 99 354 282 320 317 260 14 245 39 27 270 236 276 248 257 323 261 294 175 173 192 227 248 211 283 263 259 255 246 261 241 276 275 285 277 283 294 300 290 298
3 20 5 302 334 344 238 274 292 350 334 335 317 11 222 263 275 248 249 310 266 286 283 151 205 209 243 257 268 267 272 275 260 254 245 271 264 273 276 258 282 308 314 300 293
8 357 335 291 305 329 335 84 294 346 257 264 36 289 295 233 222 273 269 207 226 274 186 162 250 197 258 247 253 269 270 264 263 261 255 258 266 273 286 301 307 302 308 304 300
359 329 311 289 322 40 231 36 308 331 289 210 285 299 266 251 292 284 268 251 244 213 195 174 172 160 273 284 294 272 247 231 230 224 221 262 275 290 294 282 279 297 302 302 304